Location: Cuzcurrita-R�o Tir�n
(42.5415°N, 2.9642°W)
Time: 08:40:07
(UTC+00:00)

Cosmos 2221 Rocket - Pass Details

Date: 27 February 2020
Orbit: 619 x 649 km, 82.5° (Epoch: 31 March)

Event Time Altitude Azimuth Distance (km) Brightness Sun altitude
Rises 19:58:08 0° 350° (N) 2,953 7.3 -22.8°
Reaches altitude 10° 20:00:24 10° 349° (N) 2,034 6.4 -23.2°
Maximum altitude 20:04:54 78° 264° (W) 652 3.6 -24.0°
Enters shadow 20:06:07 48° 188° (S) 833 4.1 -24.2°
